TimeCST,TemperatureF,Dew PointF,Humidity,Sea Level PressureIn,VisibilityMPH,Wind Direction,Wind SpeedMPH,Gust SpeedMPH,PrecipitationIn,Events,Conditions,WindDirDegrees,DateUTC
12:12 AM,4.6,-6.2,61,30.35,10.0,NW,8.1,-,N/A,,Clear,320,2013-02-20 06:12:00
12:32 AM,4.1,-6.2,63,30.36,10.0,NNW,6.9,-,N/A,,Clear,330,2013-02-20 06:32:00
12:52 AM,4.1,-6.2,63,30.37,10.0,NNW,6.9,-,N/A,,Clear,330,2013-02-20 06:52:00
1:12 AM,3.7,-6.2,64,30.37,10.0,NNW,6.9,-,N/A,,Clear,330,2013-02-20 07:12:00
1:32 AM,3.4,-6.3,64,30.39,10.0,NNW,8.1,-,N/A,,Clear,330,2013-02-20 07:32:00
1:52 AM,3.6,-6.0,65,30.39,10.0,North,4.6,-,N/A,,Clear,350,2013-02-20 07:52:00
2:12 AM,3.2,-6.2,65,30.38,10.0,North,6.9,-,N/A,,Clear,350,2013-02-20 08:12:00
2:32 AM,3.0,-6.2,66,30.39,10.0,NNW,6.9,-,N/A,,Clear,340,2013-02-20 08:32:00
2:52 AM,3.0,-6.2,66,30.40,10.0,NNW,8.1,-,N/A,,Clear,330,2013-02-20 08:52:00
3:32 AM,2.7,-6.2,67,30.41,10.0,NNW,6.9,-,N/A,,Clear,340,2013-02-20 09:32:00
3:52 AM,2.3,-6.0,68,30.40,10.0,NNW,5.8,-,N/A,,Clear,340,2013-02-20 09:52:00
4:12 AM,2.1,-6.2,68,30.41,10.0,NNW,5.8,-,N/A,,Clear,340,2013-02-20 10:12:00
4:32 AM,2.1,-6.0,69,30.42,10.0,NW,4.6,-,N/A,,Clear,320,2013-02-20 10:32:00
4:52 AM,1.8,-6.5,68,30.42,10.0,NNW,4.6,-,N/A,,Clear,330,2013-02-20 10:52:00
5:12 AM,1.6,-6.3,69,30.42,10.0,NNW,4.6,-,N/A,,Clear,340,2013-02-20 11:12:00
5:32 AM,1.4,-6.3,70,30.43,10.0,NNW,4.6,-,N/A,,Clear,340,2013-02-20 11:32:00
5:52 AM,1.4,-6.5,69,30.42,10.0,North,3.5,-,N/A,,Clear,350,2013-02-20 11:52:00
6:12 AM,1.0,-6.5,71,30.43,10.0,NNW,4.6,-,N/A,,Clear,340,2013-02-20 12:12:00
6:32 AM,0.7,-6.5,72,30.43,10.0,NNW,4.6,-,N/A,,Clear,340,2013-02-20 12:32:00
6:52 AM,0.5,-6.7,72,30.44,10.0,NNW,3.5,-,N/A,,Clear,340,2013-02-20 12:52:00
7:12 AM,0.3,-6.7,72,30.45,10.0,NNW,4.6,-,N/A,,Clear,340,2013-02-20 13:12:00
7:32 AM,0.1,-6.5,74,30.45,10.0,North,4.6,-,N/A,,Clear,350,2013-02-20 13:32:00
7:52 AM,0.9,-6.3,72,30.45,10.0,NNE,4.6,-,N/A,,Clear,20,2013-02-20 13:52:00
8:12 AM,1.0,-6.3,71,30.45,10.0,North,6.9,-,N/A,,Clear,10,2013-02-20 14:12:00
8:32 AM,0.9,-6.7,71,30.45,10.0,North,5.8,-,N/A,,Clear,10,2013-02-20 14:32:00
8:52 AM,1.6,-6.2,70,30.44,10.0,North,4.6,-,N/A,,Clear,10,2013-02-20 14:52:00
9:12 AM,3.0,-5.1,69,30.44,10.0,NNE,4.6,-,N/A,,Clear,30,2013-02-20 15:12:00
9:32 AM,3.6,-4.9,68,30.45,10.0,ENE,6.9,-,N/A,,Clear,70,2013-02-20 15:32:00
9:52 AM,3.7,-4.0,70,30.45,10.0,ENE,5.8,-,N/A,,Clear,60,2013-02-20 15:52:00
10:12 AM,4.1,-3.1,72,30.45,10.0,NNE,4.6,-,N/A,,Clear,30,2013-02-20 16:12:00
10:32 AM,4.5,-3.5,70,30.45,10.0,Calm,Calm,-,N/A,,Clear,0,2013-02-20 16:32:00
10:52 AM,5.5,-2.6,69,30.45,10.0,Calm,Calm,-,N/A,,Clear,0,2013-02-20 16:52:00
11:12 AM,6.4,-2.4,67,30.45,10.0,Calm,Calm,-,N/A,,Clear,0,2013-02-20 17:12:00
11:32 AM,7.3,-1.5,67,30.45,10.0,Calm,Calm,-,N/A,,Clear,0,2013-02-20 17:32:00
11:52 AM,8.2,-1.3,65,30.45,10.0,Calm,Calm,-,N/A,,Clear,0,2013-02-20 17:52:00
12:12 PM,9.3,-0.4,65,30.44,10.0,Calm,Calm,-,N/A,,Clear,0,2013-02-20 18:12:00
12:32 PM,10.6,0.3,63,30.44,10.0,West,3.5,-,N/A,,Clear,270,2013-02-20 18:32:00
12:52 PM,11.5,0.7,62,30.43,10.0,Calm,Calm,-,N/A,,Clear,0,2013-02-20 18:52:00
1:12 PM,12.7,1.4,61,30.43,10.0,Calm,Calm,-,N/A,,Clear,0,2013-02-20 19:12:00
1:32 PM,13.6,1.4,58,30.44,10.0,Calm,Calm,-,N/A,,Clear,0,2013-02-20 19:32:00
1:52 PM,15.6,2.1,55,30.44,10.0,Calm,Calm,-,N/A,,Clear,0,2013-02-20 19:52:00
2:12 PM,15.8,3.2,58,30.44,10.0,Calm,Calm,-,N/A,,Clear,0,2013-02-20 20:12:00
2:32 PM,16.0,3.4,58,30.44,10.0,ENE,3.5,-,N/A,,Clear,70,2013-02-20 20:32:00
2:52 PM,16.7,3.6,56,30.43,10.0,NNE,4.6,-,N/A,,Clear,30,2013-02-20 20:52:00
3:12 PM,16.9,3.2,55,30.43,10.0,North,5.8,-,N/A,,Clear,10,2013-02-20 21:12:00
3:32 PM,17.4,3.4,54,30.42,10.0,North,3.5,-,N/A,,Clear,360,2013-02-20 21:32:00
3:52 PM,17.4,3.0,53,30.41,10.0,North,3.5,-,N/A,,Clear,10,2013-02-20 21:52:00
4:12 PM,17.6,3.2,53,30.41,10.0,North,4.6,-,N/A,,Clear,360,2013-02-20 22:12:00
4:32 PM,17.4,3.2,54,30.41,10.0,NE,5.8,-,N/A,,Clear,50,2013-02-20 22:32:00
4:52 PM,16.9,3.0,55,30.41,10.0,NE,5.8,-,N/A,,Clear,50,2013-02-20 22:52:00
5:12 PM,16.0,2.3,55,30.41,10.0,NE,5.8,-,N/A,,Clear,50,2013-02-20 23:12:00
5:32 PM,15.8,2.3,55,30.41,10.0,NE,3.5,-,N/A,,Clear,50,2013-02-20 23:32:00
5:52 PM,15.6,2.3,56,30.40,10.0,NE,5.8,-,N/A,,Clear,50,2013-02-20 23:52:00
6:12 PM,15.6,2.8,57,30.39,10.0,ENE,5.8,-,N/A,,Clear,60,2013-02-21 00:12:00
6:32 PM,15.8,2.5,56,30.40,10.0,NNE,3.5,-,N/A,,Clear,20,2013-02-21 00:32:00
6:52 PM,15.8,2.7,56,30.40,10.0,Calm,Calm,-,N/A,,Clear,0,2013-02-21 00:52:00
7:12 PM,15.4,3.0,58,30.39,10.0,Calm,Calm,-,N/A,,Clear,0,2013-02-21 01:12:00
7:32 PM,15.4,3.0,58,30.40,10.0,Calm,Calm,-,N/A,,Clear,0,2013-02-21 01:32:00
7:52 PM,14.9,3.2,60,30.39,10.0,Calm,Calm,-,N/A,,Clear,0,2013-02-21 01:52:00
8:12 PM,14.9,3.0,59,30.39,10.0,Calm,Calm,-,N/A,,Clear,0,2013-02-21 02:12:00
8:32 PM,14.9,3.2,60,30.38,10.0,Calm,Calm,-,N/A,,Clear,0,2013-02-21 02:32:00
8:52 PM,14.7,3.2,60,30.38,10.0,Calm,Calm,-,N/A,,Clear,0,2013-02-21 02:52:00
9:12 PM,14.0,3.2,62,30.39,10.0,WSW,3.5,-,N/A,,Clear,240,2013-02-21 03:12:00
9:32 PM,13.1,3.4,65,30.39,10.0,Calm,Calm,-,N/A,,Clear,0,2013-02-21 03:32:00
9:52 PM,14.2,3.4,62,30.39,10.0,Calm,Calm,-,N/A,,Clear,0,2013-02-21 03:52:00
10:32 PM,14.0,4.5,66,30.39,10.0,Calm,Calm,-,N/A,,Clear,0,2013-02-21 04:32:00
10:52 PM,13.3,4.3,67,30.39,10.0,Calm,Calm,-,N/A,,Clear,0,2013-02-21 04:52:00
11:12 PM,13.1,3.9,67,30.39,10.0,Calm,Calm,-,N/A,,Clear,0,2013-02-21 05:12:00
11:32 PM,13.6,3.4,64,30.39,10.0,Calm,Calm,-,N/A,,Clear,0,2013-02-21 05:32:00
11:52 PM,13.5,3.6,65,30.39,10.0,NE,3.5,-,N/A,,Clear,40,2013-02-21 05:52:00